sat.trackr.live / text

‹ back to catalog

NOVASAR 1

NORAD 43619 · 2018-071B

PAYLOAD ACTIVE UNKNOWN

§ Identity

Operator
Country
UK
Launch date
2018-09-16
Launch site
SRILR
Launch vehicle
Mass (kg)
RCS (m²)

External: N2YO · Heavens-Above · Gunter

§ Orbital elements

Epoch: 2026-05-25T04:22:59.306304Z

Period
96.24 min
Inclination
97.5091°
Eccentricity
0.0001596
Mean motion
14.96214184 rev/d
Perigee alt
577.5 km
Apogee alt
579.7 km
Semi-major
6,956.7 km
B*
3.8313e-5
RAAN
18.4427°
Arg perigee
100.4287°
Mean anomaly
259.7115°
Rev number
41,949

§ Raw data

NOVASAR 11 43619U 18071B   26145.18263086  .00000378  00000+0  38313-4 0  99912 43619  97.5091  18.4427 0001596 100.4287 259.7115 14.96214184419492

JSON: /api/v1/satellites/43619 · /tle

For live sub-satellite position, see the globe view (requires WebGL).

§ Visibility from observer

Set your observer location to see the next 7 days of passes ≥ 10°. The values pass through the URL so the page stays shareable.

No JS? Fill the form by hand. The geolocation button needs JavaScript.

§ Radio — SatNOGS DB

ModeDescriptionDownlinkUplink
FM S-band telemetry 2.227 GHz

1 transmitter · refreshed weekly from db.satnogs.org